TimeEDT,TemperatureF,Dew PointF,Humidity,Sea Level PressureIn,VisibilityMPH,Wind Direction,Wind SpeedMPH,Gust SpeedMPH,PrecipitationIn,Events,Conditions,WindDirDegrees,DateUTC
12:51 AM,53.1,48.9,86,30.22,10.0,Calm,Calm,-,N/A,,Clear,0,2012-10-05 04:51:00
1:51 AM,52.0,48.0,86,30.22,10.0,Calm,Calm,-,N/A,,Clear,0,2012-10-05 05:51:00
2:51 AM,51.1,46.9,86,30.21,10.0,South,3.5,-,N/A,,Clear,180,2012-10-05 06:51:00
3:51 AM,52.0,48.0,86,30.19,10.0,South,3.5,-,N/A,,Clear,190,2012-10-05 07:51:00
4:51 AM,52.0,48.0,86,30.19,10.0,South,4.6,-,N/A,,Clear,170,2012-10-05 08:51:00
5:51 AM,53.1,48.0,83,30.19,10.0,South,3.5,-,N/A,,Clear,180,2012-10-05 09:51:00
6:51 AM,54.0,48.9,83,30.19,10.0,South,4.6,-,N/A,,Clear,190,2012-10-05 10:51:00
7:51 AM,50.0,48.0,93,30.23,10.0,Calm,Calm,-,N/A,,Clear,0,2012-10-05 11:51:00
8:51 AM,57.9,52.0,81,30.22,10.0,Calm,Calm,-,N/A,,Clear,0,2012-10-05 12:51:00
9:51 AM,61.0,53.1,75,30.22,10.0,Calm,Calm,-,N/A,,Clear,0,2012-10-05 13:51:00
10:51 AM,64.9,55.0,70,30.19,10.0,SW,4.6,-,N/A,,Clear,220,2012-10-05 14:51:00
11:51 AM,66.0,53.1,63,30.17,10.0,Variable,4.6,-,N/A,,Mostly Cloudy,0,2012-10-05 15:51:00
12:07 PM,68.0,53.6,60,30.21,10.0,SW,4.6,-,N/A,,Scattered Clouds,230,2012-10-05 16:07:00
12:51 PM,69.1,51.1,53,30.15,10.0,SW,6.9,-,N/A,,Clear,230,2012-10-05 16:51:00
1:51 PM,70.0,51.1,51,30.12,10.0,SW,8.1,-,N/A,,Partly Cloudy,220,2012-10-05 17:51:00
2:51 PM,70.0,50.0,49,30.10,10.0,WNW,8.1,-,N/A,,Mostly Cloudy,290,2012-10-05 18:51:00
3:51 PM,71.1,50.0,47,30.08,10.0,West,8.1,-,N/A,,Partly Cloudy,260,2012-10-05 19:51:00
4:51 PM,71.1,50.0,47,30.04,10.0,West,4.6,-,N/A,,Clear,270,2012-10-05 20:51:00
5:51 PM,70.0,51.1,51,30.03,10.0,West,4.6,-,N/A,,Scattered Clouds,280,2012-10-05 21:51:00
6:51 PM,64.9,52.0,63,30.04,10.0,Calm,Calm,-,N/A,,Clear,0,2012-10-05 22:51:00
7:51 PM,60.1,53.1,78,30.06,10.0,Calm,Calm,-,N/A,,Clear,0,2012-10-05 23:51:00
8:51 PM,57.9,52.0,81,30.03,10.0,Calm,Calm,-,N/A,,Clear,0,2012-10-06 00:51:00
9:51 PM,57.0,51.1,81,30.03,10.0,Calm,Calm,-,N/A,,Clear,0,2012-10-06 01:51:00
10:51 PM,57.0,51.1,81,30.01,10.0,SSE,6.9,-,N/A,,Clear,150,2012-10-06 02:51:00
11:51 PM,59.0,51.1,75,29.98,10.0,SSE,6.9,-,N/A,,Clear,160,2012-10-06 03:51:00